FW8749 Weather Reports


time (UTC)temp
C
wind
direction
speed
KPH
gust
KPH
rain 1hr
cm
rain 24hr
cm
rain mn
cm
humidity
%
barometer
mb
20260505052251 -17 210 0.0 0.0 0.00 0.00 0.00 1009.6
20260505051748 -17 209 0.0 0.0 0.00 0.00 0.00 1009.7
20260505051246 -17 204 0.0 0.0 0.00 0.00 0.00 1009.4
20260505050744 -17 198 1.6 1.6 0.00 0.00 0.00 1009.7
20260505050242 -17 209 1.6 1.6 0.00 0.00 0.00 1009.5
20260505041712 -17 205 0.0 0.0 0.00 0.00 0.00 1009.3
20260505041209 -17 208 0.0 0.0 0.00 0.00 0.00 1009.2
20260505040706 -17 205 0.0 0.0 0.00 0.00 0.00 1009.3
20260505040204 -17 208 1.6 1.6 0.00 0.00 0.00 1009.2
20260505035700 -17 214 1.6 1.6 0.00 0.00 0.00 1009.1
20260505035156 -17 215 0.0 0.0 0.00 0.00 0.00 1009.2
20260505034653 -17 201 3.2 3.2 0.00 0.00 0.00 1009.1
20260505034150 -17 198 1.6 3.2 0.00 0.00 0.00 1009.2
20260505033646 -17 215 0.0 1.6 0.00 0.00 0.00 1009.1
20260505033145 -17 207 0.0 0.0 0.00 0.00 0.00 1009.0
20260505032643 -17 206 0.0 0.0 0.00 0.00 0.00 1009.3
20260505032138 -17 208 0.0 0.0 0.00 0.00 0.00 1009.1
20260505031636 -17 214 0.0 0.0 0.00 0.00 0.00 1009.2
20260505031132 -17 196 1.6 3.2 0.00 0.00 0.00 1009.2
20260505030629 -17 198 1.6 1.6 0.00 0.00 0.00 1009.2
20260505030125 -17 188 0.0 1.6 0.00 0.00 0.00 1009.0
20260505025621 -17 201 3.2 4.8 0.00 0.00 0.00 1009.2
20260505025120 -17 200 1.6 1.6 0.00 0.00 0.00 1009.3
20260505024617 -17 209 1.6 1.6 0.00 0.00 0.00 1009.3
20260505024114 -17 191 4.8 4.8 0.00 0.00 0.00 1009.1
20260505023611 -17 218 0.0 0.0 0.00 0.00 0.00 1009.4
20260505023109 -17 219 0.0 0.0 0.00 0.00 0.00 1009.2
20260505022606 -17 222 0.0 0.0 0.00 0.00 0.00 1009.0
20260505022103 -17 216 0.0 0.0 0.00 0.00 0.00 1009.1
20260505021559 -17 206 0.0 0.0 0.00 0.00 0.00 1009.2
20260505021056 -17 219 0.0 0.0 0.00 0.00 0.00 1009.3
20260505020556 -17 206 0.0 0.0 0.00 0.00 0.00 1009.3
20260505020053 -17 221 0.0 0.0 0.00 0.00 0.00 1009.2
20260505015550 -17 207 0.0 0.0 0.00 0.00 0.00 1009.2
20260505015047 -17 212 0.0 0.0 0.00 0.00 0.00 1009.4
20260505014544 -17 216 0.0 0.0 0.00 0.00 0.00 1009.3
20260505014041 -17 213 0.0 0.0 0.00 0.00 0.00 1009.0
20260505013538 -17 235 0.0 0.0 0.00 0.00 0.00 1009.5
20260505013036 -17 221 0.0 0.0 0.00 0.00 0.00 1009.2
20260505012534 -17 219 0.0 0.0 0.00 0.00 0.00 1009.2
20260505012030 -17 201 0.0 0.0 0.00 0.00 0.00 1008.9
20260505011526 -17 226 0.0 0.0 0.00 0.00 0.00 1008.9
20260505011023 -17 218 0.0 0.0 0.00 0.00 0.00 1008.8
20260505010518 -17 217 0.0 0.0 0.00 0.00 0.00 1008.9
20260505010015 -17 215 0.0 0.0 0.00 0.00 0.00 1008.8
20260505005512 -17 220 0.0 0.0 0.00 0.00 0.00 1008.9
20260505005009 -17 229 0.0 0.0 0.00 0.00 0.00 1008.4
20260505004506 -17 200 0.0 0.0 0.00 0.00 0.00 1008.6
20260505004003 -17 204 0.0 0.0 0.00 0.00 0.00 1008.5
20260505003500 -17 215 0.0 0.0 0.00 0.00 0.00 1008.6
20260505002956 -17 210 0.0 0.0 0.00 0.00 0.00 1008.7
20260505002452 -17 238 0.0 0.0 0.00 0.00 0.00 1008.5
20260505001951 -17 225 0.0 0.0 0.00 0.00 0.00 1008.7
20260505001448 -17 221 0.0 0.0 0.00 0.00 0.00 1008.4
20260505000945 -17 226 0.0 1.6 0.00 0.00 0.00 1008.6
20260505000443 -17 205 1.6 3.2 0.00 0.00 0.00 1008.8
20260504235940 -17 230 0.0 0.0 0.00 0.00 0.00 1008.6
20260504235437 -17 211 1.6 3.2 0.00 0.00 0.00 1008.5
20260504234933 -17 209 0.0 0.0 0.00 0.00 0.00 1008.7
20260504234431 -17 209 1.6 1.6 0.00 0.00 0.00 1008.7
20260504233927 -17 210 1.6 3.2 0.00 0.00 0.00 1008.4
20260504233423 -17 211 1.6 1.6 0.00 0.00 0.00 1008.4
20260504232920 -17 189 0.0 0.0 0.00 0.00 0.00 1008.6
20260504232417 -17 205 3.2 4.8 0.00 0.00 0.00 1008.4
20260504231914 -17 208 1.6 1.6 0.00 0.00 0.00 1008.6
20260504231410 -17 185 1.6 4.8 0.00 0.00 0.00 1008.5
20260504230907 -17 196 4.8 8.0 0.00 0.00 0.00 1008.6
20260504230404 -17 205 3.2 3.2 0.00 0.00 0.00 1008.4
20260504225903 -17 156 1.6 1.6 0.00 0.00 0.00 1008.4
20260504225359 -17 224 0.0 0.0 0.00 0.00 0.00 1008.6
20260504224856 -17 219 1.6 1.6 0.00 0.00 0.00 1008.4
20260504224353 -17 204 1.6 3.2 0.00 0.00 0.00 1008.6
20260504223850 -17 211 1.6 3.2 0.00 0.00 0.00 1008.3
20260504223345 -17 221 1.6 3.2 0.00 0.00 0.00 1008.4
20260504222842 -17 190 3.2 3.2 0.00 0.00 0.00 1008.3
20260504222338 -17 235 3.2 4.8 0.00 0.00 0.00 1008.3
20260504221837 -17 176 1.6 3.2 0.00 0.00 0.00 1008.3
20260504221333 -17 219 0.0 0.0 0.00 0.00 0.00 1008.3
20260504220831 -17 226 3.2 3.2 0.00 0.00 0.00 1008.4
20260504220327 -17 213 3.2 4.8 0.00 0.00 0.00 1008.4
20260504215825 -17 167 4.8 8.0 0.00 0.00 0.00 1008.5
20260504215321 -17 210 3.2 4.8 0.00 0.00 0.00 1008.1
20260504214817 -17 201 1.6 3.2 0.00 0.00 0.00 1008.2
20260504214314 -17 240 0.0 1.6 0.00 0.00 0.00 1008.6
20260504213810 -17 200 4.8 4.8 0.00 0.00 0.00 1008.3
20260504213307 -17 226 0.0 1.6 0.00 0.00 0.00 1008.4
20260504212804 -17 269 3.2 8.0 0.00 0.00 0.00 1008.5
20260504212300 -17 228 1.6 1.6 0.00 0.00 0.00 1008.3
20260504211758 -17 234 1.6 3.2 0.00 0.00 0.00 1008.4
20260504211254 -17 210 1.6 3.2 0.00 0.00 0.00 1008.4
20260504210752 -17 182 1.6 3.2 0.00 0.00 0.00 1008.5
20260504210249 -17 195 0.0 1.6 0.00 0.00 0.00 1008.3
20260504205745 -17 85 1.6 3.2 0.00 0.00 0.00 1008.6
20260504205243 -17 223 0.0 0.0 0.00 0.00 0.00 1008.5
20260504204741 -17 312 0.0 1.6 0.00 0.00 0.00 1008.8
20260504204239 -17 268 1.6 1.6 0.00 0.00 0.00 1008.5
20260504203738 -17 186 3.2 8.0 0.00 0.00 0.00 1008.5
20260504203235 -17 196 6.4 9.7 0.00 0.00 0.00 1009.0
20260504202735 -17 214 3.2 3.2 0.00 0.00 0.00 1009.0
20260504202233 -17 227 0.0 0.0 0.00 0.00 0.00 1009.1
20260504201730 -17 254 4.8 4.8 0.00 0.00 0.00 1009.2
20260504201227 -17 260 1.6 1.6 0.00 0.00 0.00 1009.0
20260504200725 -17 207 3.2 3.2 0.00 0.00 0.00 1009.3
20260504200220 -17 219 1.6 1.6 0.00 0.00 0.00 1009.2
20260504195717 -17 189 6.4 8.0 0.00 0.00 0.00 1009.2
20260504195213 -17 182 1.6 3.2 0.00 0.00 0.00 1009.3
20260504194710 -17 200 4.8 8.0 0.00 0.00 0.00 1009.4
20260504194206 -17 194 4.8 8.0 0.00 0.00 0.00 1009.5
20260504193702 -17 209 1.6 3.2 0.00 0.00 0.00 1009.6
20260504193200 -17 47 0.0 1.6 0.00 0.00 0.00 1009.6
20260504192658 -17 243 3.2 3.2 0.00 0.00 0.00 1009.7
20260504192156 -17 138 3.2 4.8 0.00 0.00 0.00 1009.7
20260504191654 -17 281 1.6 3.2 0.00 0.00 0.00 1009.8
20260504191150 -17 220 4.8 4.8 0.00 0.00 0.00 1009.9
20260504190646 -17 38 4.8 8.0 0.00 0.00 0.00 1010.0
20260504190143 -17 213 3.2 3.2 0.00 0.00 0.00 1010.1
20260504185639 -17 216 1.6 3.2 0.00 0.00 0.00 1010.0
20260504185136 -17 252 1.6 3.2 0.00 0.00 0.00 1010.1
20260504184632 -17 248 1.6 3.2 0.00 0.00 0.00 1010.2
20260504184127 -17 252 3.2 4.8 0.00 0.00 0.00 1010.6
20260504183625 -17 204 6.4 8.0 0.00 0.00 0.00 1010.3
20260504183122 -17 242 1.6 1.6 0.00 0.00 0.00 1010.6
20260504182620 -17 216 1.6 1.6 0.00 0.00 0.00 1010.5
20260504182117 -17 165 8.0 9.7 0.00 0.00 0.00 1010.6
20260504181614 -17 198 4.8 8.0 0.00 0.00 0.00 1010.7
20260504181112 -17 181 1.6 1.6 0.00 0.00 0.00 1010.8
20260504180611 -17 97 4.8 4.8 0.00 0.00 0.00 1010.8
20260504180109 -17 302 6.4 8.0 0.00 0.00 0.00 1010.8
20260504175606 -17 284 3.2 3.2 0.00 0.00 0.00 1011.0
20260504175103 -17 237 1.6 3.2 0.00 0.00 0.00 1010.9
20260504174601 -17 282 1.6 3.2 0.00 0.00 0.00 1011.0
20260504174057 -17 236 1.6 1.6 0.00 0.00 0.00 1010.9
20260504173554 -17 190 0.0 0.0 0.00 0.00 0.00 1010.9
20260504173052 -17 208 4.8 4.8 0.00 0.00 0.00 1010.9
20260504172547 -17 178 4.8 4.8 0.00 0.00 0.00 1011.3
20260504172044 -17 243 1.6 1.6 0.00 0.00 0.00 1011.1
20260504171541 -17 229 0.0 0.0 0.00 0.00 0.00 1011.3
20260504171038 -17 232 4.8 4.8 0.00 0.00 0.00 1011.3
20260504170534 -17 303 9.7 14.5 0.00 0.00 0.00 1011.5
20260504150918 -17 87 0.0 1.6 0.00 0.00 0.00 1012.7
20260504150415 -17 188 3.2 3.2 0.00 0.00 0.00 1012.6
20260504140841 -17 179 4.8 4.8 0.00 0.00 0.00 1012.9
20260504140337 -17 341 1.6 3.2 0.00 0.00 0.00 1013.0
20260504130806 -17 141 4.8 9.7 0.00 0.00 0.00 1013.5
20260504130302 -17 237 3.2 4.8 0.00 0.00 0.00 1013.2
20260504120225 -17 216 0.0 1.6 0.00 0.00 0.00 1013.7
20260504110653 -17 226 0.0 0.0 0.00 0.00 0.00 1014.0
20260504110149 -17 188 0.0 0.0 0.00 0.00 0.00 1014.1
20260504100615 -17 208 0.0 0.0 0.00 0.00 0.00 1014.0
20260504100113 -17 212 0.0 0.0 0.00 0.00 0.00 1013.9
20260504081506 -17 222 0.0 0.0 0.00 0.00 0.00 1014.1
20260504081001 -17 224 0.0 0.0 0.00 0.00 0.00 1014.1
20260504080458 -17 227 0.0 0.0 0.00 0.00 0.00 1014.2